KOREASAT 116

Satellite information

Favourite Embed

Satellite Type and Status

PAYLOADIN ORBIT

Key statistics

Satellite KOREASAT 116 at a glance.

Uptime

1932

Days in orbit

Revolutions

≈ 1.0

Per day

Orbit

GEO

Geostationary Orbit

Inclination

0.0

Latest

Satellite identification and parameters

Extended collection of information and parameters for KOREASAT 116.

Object identification

Identified? True

Debris? False

Object name: KOREASAT 116

International designator: 2020-048A

Object number (NORAD): 45920

Object ID (CCSDS): 45920

Country: SOUTH KOREA (SKOR)

Current information (Y/N): Y

RCS size: LARGE

Orbital parameters

Period: 1436.118 minutes

Inclination: 0.0162 deg

SMA: 42165.146 km

Apoapsis: 35790.506 km

Periapsis: 35783.515 km

RAAN: 276.7672 deg

Eccentricy: 0.0000829

Argument of periapsis: 314.3945 deg

Mean anomaly: 51.8828 deg

Mean motion: 1.00270309 rev/day

Mean motion (dot): 0.0 rev/day2

B* drag term: 0.0 1/REarth

Two-line elements (TLE)

Creation date: Nov. 2, 2025, 3:46 p.m.

Reference frame: TEME

Reference center: EARTH

Epoch: Nov. 2, 2025, 8:19 a.m. UTC

TLE line 0: 0 KOREASAT 116

TLE line 1: 1 45920U 20048A 25306.34706764 .00000000 00000-0 00000+0 0 9996

TLE line 2: 2 45920 0.0162 276.7672 0000829 314.3945 51.8828 1.00270309 19369

Live tracking on map

Real-time ground track for satellite KOREASAT 116.

In-orbit conjunctions

There are no conjunctions computed for KOREASAT 116, at the moment. Check back to stay up to date, as we update our databases every day.

Go to all conjunctions

Associated space launch

ANASIS-II is South Korea's first dedicated military satellite.

KOREASAT 116 was lifted into orbit during the mission ‘Falcon 9 Block 5 | ANASIS-II’, on board a Falcon 9 space rocket.

The launch took place on July 20, 2020, 9:30 p.m. from Space Launch Complex 40.

For more information about the launch, click the button.

Launch to space Falcon 9 Block 5 | ANASIS-II
Falcon 9 Block 5 | ANASIS-II

Agency: N/A

Status: Launch Successful

Launch date: July 20, 2020, 9:30 p.m. UTC

Rocket: Falcon 9

Launch pad: Space Launch Complex 40

Location: Cape Canaveral SFS, FL, USA

...

Latest news about this satellite

News about space launch
SpaceX Launches ANASIS-II Military Communications Satellite for South Korea

News about space launch
SpaceX Falcon 9 launches South Korea’s Anasis-2 military satellite

News about space launch
SpaceX rocket nosecone catch years in the making caught on camera


Newsletter sign-up

Weekly statistics, charts and insights to help you stay on top of the space industry.